Home   Weather   Astana   Past weeks
Flag for Kazakhstan

Past Weather in Astana, Kazakhstan — Yesterday and Last 2 Weeks

Currently: -8 °F. Sunny. (Weather station: Astana, Kazakhstan). See more current weather

Past Weather in Astana — Graph

°F

Astana Temperature Yesterday

Maximum temperature yesterday: -2 °F (at 4:00 pm)
Minimum temperature yesterday: -22 °F (at 7:00 am)
Average temperature yesterday: -14 °F

High & Low Weather Summary for the Past Weeks

 TemperatureHumidityPressure
High37 °F (Feb 9, 4:39 pm)100% (Feb 7, 12:30 pm)30.83 "Hg (Feb 7, 12:30 pm)
Low-26 °F (Feb 16, 4:00 am)54% (Feb 20, 3:30 pm)29.45 "Hg (Feb 7, 10:30 am)
Average3 °F80%30.21 "Hg
* Reported Feb 6 7:00 pm — Feb 21 7:00 pm, Astana. Weather by CustomWeather, © 2024

Note: Actual official high and low records may vary slightly from our data, if they occured in-between our weather recording intervals... More about our weather records

Astana Weather History for the Previous 24 Hours

Scroll right to see more
 ConditionsComfort  
Time TempWeatherWind HumidityBarometerVisibility
7:00 pm
Wed, Feb 21
-8 °FSunny.6 mph70%30.57 "Hg10 mi
6:30 pm-6 °FSunny.8 mph70%30.54 "Hg10 mi
6:00 pm-4 °FSunny.8 mph71%30.54 "Hg10 mi
5:30 pm-2 °FSunny.10 mph65%30.57 "Hg10 mi
5:00 pm-2 °FSunny.10 mph71%30.57 "Hg10 mi
4:30 pm-2 °FSunny.10 mph65%30.57 "Hg10 mi
4:00 pm-2 °FSunny.10 mph65%30.57 "Hg10 mi
3:30 pm-2 °FSunny.10 mph65%30.57 "Hg10 mi
3:00 pm-2 °FSunny.13 mph59%30.57 "Hg10 mi
2:30 pm-2 °FSunny.10 mph65%30.57 "Hg10 mi
2:00 pm-4 °FSunny.13 mph65%30.60 "Hg10 mi
1:30 pm-4 °FSunny.13 mph65%30.60 "Hg10 mi
1:00 pm-6 °FSunny.10 mph64%30.60 "Hg10 mi
12:30 pm-6 °FSunny.10 mph59%30.60 "Hg10 mi
12:00 pm-8 °FSunny.13 mph64%30.60 "Hg10 mi
11:30 am-8 °FSunny.10 mph64%30.60 "Hg10 mi
11:00 am-9 °FSunny.8 mph64%30.60 "Hg10 mi
10:30 am-11 °FSunny.8 mph63%30.60 "Hg10 mi
10:00 am-13 °FSunny.8 mph69%30.63 "Hg10 mi
9:30 am-15 °FSunny.8 mph63%30.63 "Hg10 mi
9:00 am-18 °FClear.6 mph69%30.63 "Hg10 mi
8:30 am-18 °FClear.6 mph69%30.63 "Hg10 mi
8:00 am-20 °FClear.6 mph68%30.63 "Hg10 mi
7:30 am-20 °FClear.6 mph68%30.63 "Hg10 mi
7:00 am-20 °FClear.6 mph75%30.63 "Hg10 mi
5:30 am-18 °FClear.6 mph69%30.66 "Hg10 mi
5:00 am-18 °FClear.6 mph69%30.66 "Hg10 mi
4:30 am-18 °FClear.8 mph69%30.66 "Hg10 mi
4:00 am-18 °FClear.8 mph75%30.66 "Hg10 mi
3:30 am-20 °FClear.8 mph75%30.66 "Hg10 mi
3:00 am-20 °FClear.10 mph75%30.66 "Hg10 mi
2:30 am-20 °FClear.6 mph75%30.66 "Hg10 mi
2:00 am-18 °FClear.8 mph75%30.66 "Hg10 mi
1:30 am-17 °FClear.8 mph69%30.66 "Hg10 mi
1:00 am-17 °FClear.8 mph69%30.69 "Hg10 mi
12:30 am-15 °FClear.8 mph69%30.69 "Hg10 mi
12:00 am-17 °FClear.10 mph76%30.69 "Hg10 mi
11:30 pm
Tue, Feb 20
-18 °FClear.8 mph75%30.69 "Hg10 mi
11:00 pm-17 °FClear.8 mph76%30.69 "Hg10 mi
10:30 pm-15 °FClear.8 mph69%30.72 "Hg10 mi
10:00 pm-15 °FClear.6 mph76%30.72 "Hg10 mi
9:30 pm-15 °FClear.6 mph76%30.72 "Hg10 mi
9:00 pm-13 °FClear.8 mph69%30.72 "Hg10 mi
8:30 pm-13 °FClear.10 mph69%30.72 "Hg10 mi
Weather by CustomWeather, © 2024

See weather overview